Temp
73 73 72 73 63 56 50 58 66 65 67 68 72 71 66 69 66 58 73 77 75 73 74 77 79 79 79 79 79 79 79 79 79 79 79 79 79 79 79 79 79 79 80 80 80 80 80 80 79
72 75 72 66 56 50 52 61 59 63 68 73 72 75 71 66 74 71 71 76 76 73 73 74 79 79 79 79 79 79 79 79 79 79 79 79 78 78 78 78 78 79 79 80 80 80 79 79 79
74 77 68 60 52 50 53 61 62 67 74 74 66 77 74 68 75 74 76 77 75 72 73 75 79 79 79 79 79 78 78 79 79 79 79 78 78 78 77 78 78 78 79 79 79 79 79 79 79
75 71 67 57 51 56 60 62 66 66 70 72 72 70 77 80 76 77 79 77 74 72 73 77 79 79 79 79 79 78 79 79 78 78 78 78 78 78 78 78 78 79 79 79 79 79 79 78 78
70 65 56 52 52 57 62 69 68 68 70 71 73 69 70 77 79 78 77 76 71 71 73 74 78 79 79 79 79 78 78 78 78 78 79 78 78 78 78 78 78 79 79 79 79 78 78 77 77
66 63 53 49 52 62 63 67 70 68 70 72 70 72 71 77 76 77 77 72 73 72 72 74 78 78 78 79 78 78 78 78 78 78 78 78 78 78 78 78 78 78 79 79 78 78 78 77 77
65 59 54 54 54 56 63 67 65 68 69 70 76 68 71 74 77 77 74 72 73 73 72 72 74 77 78 78 78 78 77 77 77 76 77 76 77 77 77 77 78 78 78 78 78 78 77 77 77
65 62 54 52 56 56 66 67 71 71 72 81 81 68 66 72 77 76 74 71 70 71 72 71 72 72 72 73 78 78 77 76 75 75 75 74 73 74 74 75 75 77 77 77 77 77 77 77 77
67 57 52 57 58 59 64 62 70 77 75 78 79 75 75 76 76 73 70 70 69 71 70 70 70 70 70 73 77 76 76 74 73 71 72 68 66 67 69 73 74 75 75 76 76 76 76 76 75
63 55 59 66 64 61 65 65 70 71 71 72 71 74 76 75 73 70 68 66 66 67 68 67 68 69 71 76 70 68 70 67 66 65 64 64 63 66 68 69 72 72 73 73 73 73 73 72 68
59 59 65 68 70 71 68 65 71 70 67 72 66 69 73 72 71 69 68 67 66 66 66 66 67 68 68 68 66 66 65 64 64 63 62 60 62 61 62 62 63 63 68 65 66 66 66 65 66
56 68 68 68 70 68 67 70 67 71 69 77 74 73 73 70 68 67 66 66 66 66 66 66 66 66 66 66 65 64 64 62 61 60 60 58 58 58 58 60 60 60 60 60 61 61 63 62 65
59 64 68 71 69 68 71 67 66 66 71 73 74 73 70 69 67 68 68 67 66 64 65 65 66 65 64 64 63 62 61 60 59 58 59 57 56 55 55 56 58 58 58 57 58 59 60 60 62
65 66 65 66 64 67 67 64 69 68 72 71 71 69 69 68 66 65 65 64 63 63 63 64 64 64 64 61 61 59 58 57 57 57 58 58 56 55 55 55 56 57 56 56 57 57 57 57 58
67 62 65 61 63 65 70 62 63 69 72 69 68 68 68 66 66 64 64 62 62 62 63 63 63 62 61 60 59 57 58 58 56 57 58 58 56 55 54 54 53 54 55 56 56 56 56 56 58
61 59 52 58 65 66 67 58 65 68 70 67 68 69 66 64 64 63 63 61 61 61 59 60 65 59 58 57 57 57 57 55 55 55 56 57 57 55 53 53 53 53 54 54 54 53 54 54 53
55 50 50 55 66 64 62 56 66 69 69 66 67 66 63 61 61 61 62 61 59 59 58 57 57 57 57 57 56 56 55 55 54 54 54 55 56 56 52 52 52 53 53 53 54 53 52 52 53
49 50 51 56 64 64 61 58 65 67 68 66 64 62 60 59 58 61 61 61 59 58 57 56 56 56 56 55 55 57 55 53 53 52 53 54 54 56 52 52 53 53 55 54 53 52 58 52 51
57 54 54 60 65 61 61 60 64 65 66 62 60 59 59 58 60 60 60 60 59 57 56 55 55 54 54 54 52 51 49 50 50 52 54 54 54 54 52 53 54 53 57 57 57 51 55 52 56
58 54 56 62 66 65 59 56 65 64 63 61 59 58 58 57 57 59 58 59 57 55 54 54 53 53 52 52 50 51 50 49 49 50 52 53 54 54 55 56 57 57 56 57 56 49 55 57 57
56 54 56 59 63 62 58 54 56 60 62 63 63 63 59 59 57 57 57 56 57 56 55 54 53 52 51 51 50 50 49 48 47 47 48 50 53 54 54 56 56 56 57 52 49 48 47 54 52
53 64 64 62 56 51 59 45 52 57 58 60 61 59 59 59 58 58 57 56 57 56 56 54 52 51 51 50 48 47 45 44 44 45 46 49 52 53 55 54 52 50 50 49 49 50 46 51 48
61 67 64 61 54 51 52 49 48 56 52 57 59 59 60 60 58 57 57 58 58 57 54 53 51 50 50 49 48 46 45 45 45 46 47 48 49 52 54 52 50 49 48 48 48 48 46 45 44
70 63 56 51 48 43 52 51 46 51 58 60 60 61 61 58 57 57 58 58 57 56 54 52 50 49 49 49 48 47 46 45 46 45 45 46 47 48 52 52 49 49 48 48 47 48 48 45 45
59 50 43 41 41 42 50 50 54 57 59 62 61 60 61 58 56 57 55 55 56 54 52 51 50 48 49 49 48 47 47 47 46 45 45 46 46 47 50 50 49 49 49 49 48 48 48 47 45
56 53 43 38 37 45 51 46 54 58 61 64 64 62 58 57 57 57 56 56 56 55 53 52 49 48 48 48 48 47 47 46 46 46 46 45 46 47 49 56 50 50 51 51 52 48 48 48 47
56 51 54 47 43 42 45 50 57 57 57 59 59 58 56 56 57 57 57 57 56 55 53 51 49 48 48 48 47 47 47 48 47 47 46 46 46 52 50 53 49 49 49 49 48 48 48 52 53
62 63 50 45 38 36 43 44 47 51 53 56 55 55 56 57 58 58 57 57 57 56 52 51 50 49 48 48 47 48 48 48 47 47 47 47 47 48 50 50 49 49 48 48 47 46 47 49 47
56 52 50 49 44 40 38 42 54 57 58 56 56 56 57 57 58 59 58 58 57 56 52 51 50 49 48 48 47 48 48 48 48 47 48 48 48 48 50 50 49 48 47 46 46 47 48 47 46
60 57 53 45 44 42 42 45 59 60 60 61 60 59 59 60 60 59 59 57 56 54 52 51 50 50 50 49 48 48 48 48 47 47 49 49 49 49 50 50 49 49 47 45 46 47 48 47 47
MSLP
1009.21 1009.55 1009.90 1010.06 1011.27 1012.00 1012.88 1012.77 1012.06 1012.15 1012.44 1013.26 1012.75 1012.30 1012.16 1012.04 1012.23 1013.19 1012.97 1013.21 1013.52 1013.85 1013.84 1013.95 1013.80 1013.66 1013.64 1013.73 1014.05 1014.08 1014.16 1014.38 1014.50 1014.59 1014.67 1014.60 1014.51 1014.39 1014.28 1014.14 1014.04 1013.93 1013.87 1013.80 1013.70 1013.69 1013.71 1013.70 1013.61
1009.13 1009.56 1009.75 1010.32 1011.43 1012.62 1013.21 1013.23 1013.47 1012.81 1012.31 1011.24 1012.03 1011.63 1011.77 1012.00 1012.02 1012.79 1013.09 1013.32 1013.58 1013.92 1013.99 1013.98 1014.10 1014.12 1013.97 1014.09 1014.13 1014.25 1014.38 1014.57 1014.72 1014.76 1014.80 1014.78 1014.65 1014.56 1014.38 1014.26 1014.16 1013.97 1013.87 1013.82 1013.73 1013.65 1013.70 1013.69 1013.63
1009.22 1009.19 1010.07 1010.92 1011.98 1012.83 1013.12 1013.43 1012.88 1012.60 1011.50 1010.72 1011.79 1011.34 1011.55 1012.10 1012.38 1012.47 1012.68 1013.33 1013.76 1014.05 1014.08 1013.91 1014.00 1014.25 1014.31 1014.39 1014.41 1014.50 1014.61 1014.85 1014.90 1014.82 1014.83 1014.89 1014.79 1014.63 1014.39 1014.26 1014.12 1013.98 1013.88 1013.74 1013.74 1013.73 1013.66 1013.65 1013.55
1009.17 1009.81 1010.79 1011.19 1012.36 1012.58 1012.86 1012.80 1012.52 1012.42 1012.00 1011.25 1011.36 1011.02 1011.41 1011.38 1011.85 1012.41 1013.24 1013.72 1014.02 1014.24 1014.17 1014.08 1014.27 1014.41 1014.50 1014.57 1014.72 1014.73 1014.88 1014.95 1015.02 1014.95 1014.87 1014.89 1014.84 1014.60 1014.45 1014.27 1014.20 1014.09 1013.91 1013.91 1013.70 1013.67 1013.63 1013.59 1013.51
1009.10 1010.26 1011.53 1012.05 1012.66 1012.61 1012.57 1012.19 1012.35 1012.10 1011.60 1011.53 1011.29 1011.42 1011.56 1011.65 1011.88 1012.55 1013.52 1013.96 1014.20 1014.61 1014.46 1014.33 1014.50 1014.69 1014.77 1014.85 1014.79 1014.83 1014.96 1015.09 1015.05 1015.07 1014.93 1014.97 1014.88 1014.69 1014.54 1014.43 1014.25 1014.15 1013.96 1013.76 1013.74 1013.65 1013.53 1013.46 1013.38
1009.61 1010.73 1012.05 1012.54 1012.80 1012.60 1012.31 1011.66 1011.64 1011.41 1011.15 1011.42 1011.67 1011.51 1011.85 1012.10 1012.43 1013.08 1013.58 1014.17 1014.27 1014.61 1014.65 1014.64 1014.76 1014.79 1014.84 1014.99 1015.04 1015.12 1015.19 1015.27 1015.32 1015.19 1014.97 1014.94 1014.82 1014.62 1014.60 1014.47 1014.36 1014.21 1013.97 1013.75 1013.72 1013.62 1013.55 1013.45 1013.26
1009.50 1010.86 1011.76 1012.20 1012.82 1012.76 1011.85 1011.57 1011.60 1011.33 1011.01 1011.05 1010.94 1011.58 1012.12 1012.58 1012.78 1013.30 1013.82 1014.46 1014.48 1014.51 1014.76 1014.98 1014.96 1014.92 1014.99 1015.10 1015.24 1015.37 1015.49 1015.58 1015.52 1015.42 1015.28 1015.24 1015.13 1014.93 1014.85 1014.68 1014.37 1014.26 1013.95 1013.81 1013.61 1013.55 1013.40 1013.24 1013.14
1009.15 1010.45 1011.66 1011.84 1012.42 1012.11 1011.17 1011.40 1011.16 1011.17 1010.52 1010.18 1010.57 1011.31 1012.16 1012.59 1013.05 1013.56 1014.21 1014.74 1014.93 1015.11 1015.06 1015.04 1015.25 1015.29 1015.49 1015.55 1015.56 1015.68 1015.82 1015.97 1015.98 1015.83 1015.80 1015.69 1015.52 1015.33 1015.16 1015.01 1014.75 1014.45 1014.28 1014.07 1013.81 1013.68 1013.53 1013.29 1013.02
1008.61 1010.20 1011.36 1011.21 1011.66 1011.19 1010.90 1011.30 1011.16 1010.92 1010.81 1010.57 1010.49 1010.76 1011.53 1012.61 1013.23 1014.07 1014.75 1015.36 1015.25 1015.42 1015.57 1015.56 1015.47 1015.61 1015.72 1015.80 1015.85 1016.00 1016.21 1016.37 1016.40 1016.37 1016.29 1016.28 1016.20 1015.97 1015.78 1015.49 1015.19 1014.96 1014.74 1014.40 1014.15 1013.91 1013.74 1013.54 1013.30
1008.58 1009.58 1009.96 1009.47 1009.88 1010.06 1010.30 1010.87 1010.76 1011.03 1011.00 1010.87 1011.43 1011.52 1012.12 1012.81 1013.48 1014.30 1014.98 1015.34 1015.64 1015.87 1015.96 1015.94 1015.74 1015.72 1015.88 1015.92 1016.28 1016.54 1016.79 1016.97 1017.03 1016.95 1016.88 1016.78 1016.71 1016.41 1016.22 1015.98 1015.69 1015.42 1015.13 1014.83 1014.56 1014.28 1013.99 1013.78 1013.59
1008.19 1008.46 1008.60 1008.90 1008.56 1008.75 1009.91 1010.74 1010.68 1010.56 1010.86 1010.46 1010.99 1011.70 1012.43 1012.99 1013.99 1014.46 1015.20 1015.52 1015.82 1016.14 1016.49 1016.27 1016.15 1015.97 1016.22 1016.52 1016.75 1017.01 1017.21 1017.26 1017.27 1017.26 1017.27 1017.20 1017.02 1016.87 1016.67 1016.45 1016.21 1015.93 1015.54 1015.28 1014.92 1014.64 1014.42 1014.20 1013.84
1007.71 1007.36 1007.62 1008.27 1008.04 1009.08 1009.70 1010.08 1010.48 1010.45 1010.40 1010.24 1010.87 1011.38 1012.38 1013.33 1014.20 1014.55 1015.06 1015.63 1016.25 1016.30 1016.47 1016.49 1016.31 1016.41 1016.68 1016.89 1017.17 1017.26 1017.42 1017.54 1017.71 1017.72 1017.58 1017.48 1017.41 1017.31 1017.18 1016.92 1016.67 1016.34 1016.03 1015.64 1015.30 1015.01 1014.69 1014.40 1014.02
1007.27 1006.98 1007.28 1007.34 1007.70 1008.12 1008.95 1009.85 1010.40 1010.69 1010.42 1010.77 1011.55 1012.22 1012.98 1013.67 1014.37 1014.70 1015.13 1016.12 1016.37 1016.55 1016.92 1016.90 1016.68 1016.87 1017.09 1017.38 1017.59 1017.67 1017.86 1017.95 1018.00 1017.91 1017.87 1017.74 1017.78 1017.81 1017.63 1017.44 1017.09 1016.77 1016.37 1016.05 1015.68 1015.33 1015.02 1014.63 1014.17
1006.65 1006.54 1006.85 1007.09 1007.51 1008.20 1008.91 1010.08 1010.53 1010.82 1010.60 1011.20 1011.96 1012.72 1013.46 1014.14 1014.85 1015.38 1016.11 1016.38 1016.72 1017.05 1017.22 1017.27 1017.36 1017.45 1017.58 1017.86 1017.94 1018.23 1018.40 1018.48 1018.43 1018.32 1018.21 1018.08 1018.03 1018.01 1017.93 1017.73 1017.47 1017.11 1016.77 1016.32 1015.98 1015.69 1015.28 1014.84 1014.32
1006.38 1006.59 1006.99 1007.58 1007.92 1008.60 1008.97 1010.47 1010.31 1010.45 1010.77 1011.31 1012.09 1012.84 1013.64 1014.72 1015.62 1016.09 1016.20 1016.62 1017.09 1017.46 1017.51 1017.61 1017.61 1017.79 1018.06 1018.19 1018.31 1018.57 1018.56 1018.69 1018.81 1018.80 1018.55 1018.39 1018.26 1018.22 1018.16 1018.04 1017.77 1017.45 1016.97 1016.49 1016.07 1015.67 1015.22 1014.83 1014.37
1006.85 1007.14 1007.68 1008.29 1008.08 1008.74 1008.60 1009.40 1009.99 1010.40 1010.66 1011.49 1012.31 1012.92 1013.83 1014.70 1015.67 1016.26 1016.67 1017.03 1017.51 1017.72 1018.02 1018.22 1018.30 1018.28 1018.23 1018.25 1018.46 1018.64 1019.03 1019.25 1019.29 1019.18 1019.01 1018.80 1018.61 1018.49 1018.39 1018.25 1017.96 1017.57 1017.13 1016.71 1016.38 1016.06 1015.57 1015.14 1014.75
1007.95 1007.96 1008.02 1008.41 1008.13 1008.27 1008.98 1009.58 1009.75 1010.41 1011.03 1011.83 1012.43 1013.44 1014.57 1015.64 1016.44 1016.96 1017.23 1017.42 1017.70 1017.86 1018.23 1018.57 1018.67 1018.82 1018.78 1018.68 1018.65 1018.92 1019.34 1019.60 1019.79 1019.72 1019.55 1019.26 1018.96 1018.76 1018.70 1018.53 1018.18 1017.73 1017.39 1017.07 1016.73 1016.27 1016.00 1015.66 1015.04
1008.45 1008.20 1007.99 1008.23 1008.42 1008.59 1008.99 1009.29 1009.62 1010.59 1011.00 1011.71 1012.80 1014.06 1015.21 1015.66 1016.47 1016.97 1017.13 1017.44 1017.73 1018.02 1018.30 1018.56 1018.89 1019.10 1019.37 1019.32 1019.26 1019.41 1019.84 1020.18 1020.17 1020.19 1019.98 1019.65 1019.32 1019.05 1018.93 1018.70 1018.35 1017.99 1017.64 1017.37 1016.97 1016.74 1016.28 1015.99 1015.60
1008.12 1008.16 1008.08 1007.30 1007.83 1008.27 1008.64 1008.81 1009.33 1010.15 1011.33 1012.81 1014.50 1015.28 1016.62 1017.09 1017.24 1017.09 1017.48 1017.56 1017.67 1018.19 1018.45 1018.81 1019.12 1019.41 1019.42 1019.73 1020.01 1020.23 1020.76 1020.83 1020.71 1020.52 1020.25 1019.90 1019.62 1019.36 1019.17 1018.84 1018.58 1018.28 1018.02 1017.87 1017.46 1017.03 1016.76 1016.32 1015.59
1007.89 1007.85 1007.48 1006.78 1006.38 1007.41 1007.59 1008.79 1009.28 1010.65 1012.06 1012.65 1013.56 1015.28 1015.89 1016.11 1016.37 1017.12 1016.84 1017.44 1018.33 1018.75 1018.60 1019.14 1019.55 1019.65 1019.89 1020.08 1020.36 1020.46 1020.92 1021.06 1021.05 1020.92 1020.58 1020.25 1019.92 1019.59 1019.28 1019.01 1018.82 1018.53 1018.37 1018.20 1017.95 1017.55 1017.23 1016.85 1016.34
1007.47 1007.53 1007.09 1007.09 1006.82 1007.54 1007.99 1009.63 1010.40 1011.20 1011.81 1012.63 1012.56 1012.08 1013.97 1014.16 1015.32 1017.15 1017.57 1017.40 1017.66 1018.40 1018.66 1019.19 1019.66 1019.93 1020.19 1020.53 1020.70 1020.86 1021.18 1021.39 1021.56 1021.37 1021.09 1020.71 1020.21 1019.85 1019.62 1019.32 1019.11 1018.91 1018.89 1018.92 1018.67 1018.23 1018.00 1017.77 1017.14
1007.01 1006.25 1006.62 1006.93 1007.47 1007.83 1007.60 1009.73 1010.70 1011.01 1011.43 1012.09 1012.47 1012.65 1013.47 1014.59 1015.79 1016.89 1017.67 1017.74 1017.64 1018.59 1018.77 1019.27 1019.81 1020.11 1020.50 1020.82 1020.96 1021.23 1021.70 1022.01 1022.08 1021.78 1021.50 1020.98 1020.45 1020.10 1019.77 1019.62 1019.57 1019.54 1019.46 1019.40 1019.18 1018.83 1018.62 1018.24 1018.46
1006.11 1005.87 1006.47 1006.77 1007.45 1007.75 1008.11 1009.14 1009.99 1010.80 1011.61 1011.33 1011.38 1012.60 1013.47 1014.07 1015.19 1016.34 1017.09 1017.55 1018.26 1018.55 1019.16 1019.50 1020.00 1020.32 1020.72 1020.94 1021.05 1021.52 1022.01 1022.17 1022.03 1021.87 1021.54 1021.20 1020.75 1020.41 1020.17 1020.13 1019.98 1020.01 1019.93 1019.86 1019.65 1019.30 1019.16 1019.11 1019.16
1005.27 1005.90 1006.72 1007.60 1008.20 1008.71 1008.04 1008.72 1009.99 1010.07 1009.11 1009.58 1010.86 1011.92 1013.13 1014.28 1015.50 1016.45 1017.23 1017.60 1018.25 1018.76 1019.29 1019.64 1020.11 1020.55 1020.67 1020.97 1021.25 1021.62 1022.02 1022.18 1022.19 1022.11 1021.99 1021.55 1021.11 1021.02 1020.52 1020.36 1020.32 1020.17 1020.15 1020.14 1020.03 1019.73 1019.56 1019.70 1019.68
1005.31 1006.47 1007.79 1008.80 1009.15 1008.93 1008.13 1008.50 1007.68 1007.61 1007.98 1008.02 1008.99 1010.87 1012.41 1013.78 1014.97 1015.85 1016.54 1017.31 1017.99 1018.71 1019.34 1019.71 1020.27 1020.56 1020.86 1021.06 1021.48 1021.72 1021.90 1022.10 1022.22 1022.26 1022.17 1021.87 1021.59 1021.28 1021.05 1020.67 1020.68 1020.49 1020.28 1020.19 1020.05 1019.97 1019.92 1019.89 1020.02
1005.30 1006.30 1007.78 1008.39 1009.32 1009.04 1008.40 1008.05 1007.23 1007.43 1007.55 1007.80 1008.99 1010.49 1012.19 1013.37 1014.36 1015.21 1015.97 1016.69 1017.63 1018.41 1019.03 1019.59 1020.10 1020.68 1020.83 1021.17 1021.54 1021.71 1021.89 1022.09 1022.19 1022.14 1022.04 1021.88 1021.70 1021.49 1021.23 1020.72 1020.92 1020.71 1020.38 1020.15 1019.99 1020.11 1020.14 1020.07 1020.06
1004.66 1005.66 1006.15 1007.40 1008.66 1008.93 1008.43 1007.81 1007.19 1007.67 1008.22 1008.55 1009.22 1010.50 1011.55 1012.71 1013.59 1014.47 1015.54 1016.27 1017.07 1017.82 1018.59 1019.37 1020.10 1020.46 1020.70 1021.10 1021.39 1021.66 1021.86 1021.98 1022.09 1022.04 1022.02 1021.93 1021.70 1021.43 1021.31 1020.99 1021.21 1021.06 1020.79 1020.61 1020.41 1020.40 1020.32 1020.22 1020.34
1003.99 1004.69 1006.17 1007.77 1008.79 1009.23 1008.69 1008.18 1007.51 1007.95 1008.34 1008.84 1009.65 1010.21 1011.19 1012.14 1013.00 1013.95 1014.87 1015.72 1016.42 1017.27 1018.17 1019.28 1019.83 1020.11 1020.65 1020.95 1021.20 1021.45 1021.73 1021.91 1022.03 1022.03 1022.04 1021.93 1021.74 1021.59 1021.47 1021.46 1021.50 1021.36 1021.22 1021.01 1020.84 1020.83 1020.72 1020.65 1020.68
1004.33 1004.85 1006.13 1007.23 1008.03 1008.24 1008.61 1007.26 1005.84 1006.09 1006.61 1007.53 1008.68 1009.48 1010.02 1011.01 1011.95 1013.06 1014.26 1015.32 1015.95 1017.02 1018.01 1018.89 1019.49 1020.16 1020.62 1020.88 1021.07 1021.35 1021.59 1021.83 1021.95 1022.04 1021.98 1021.86 1021.78 1021.71 1021.68 1021.73 1021.77 1021.65 1021.60 1021.47 1021.26 1021.12 1020.97 1020.99 1020.98
1003.88 1004.62 1005.40 1007.00 1007.47 1007.73 1007.60 1006.00 1004.49 1005.02 1005.81 1006.58 1007.41 1008.46 1009.33 1010.15 1011.10 1012.21 1013.42 1014.76 1015.81 1016.88 1017.69 1018.46 1019.27 1019.87 1020.24 1020.62 1020.89 1021.24 1021.53 1021.72 1021.84 1021.96 1021.84 1021.62 1021.71 1021.75 1021.52 1021.69 1021.87 1021.87 1021.80 1021.74 1021.58 1021.37 1021.19 1021.13 1021.08
Wind_Speed
6 6 2 2 4 6 2 3 5 8 7 2 7 3 0 4 2 2 0 8 8 5 5 5 11 12 13 13 12 12 12 10 9 8 7 6 6 7 7 7 6 5 5 4 4 4 4 4 4
4 3 3 2 5 3 1 3 8 4 5 8 11 4 4 3 4 7 5 8 7 5 4 5 11 12 13 13 12 11 10 9 7 6 6 5 5 5 5 5 4 4 4 4 4 4 4 5 5
3 1 4 4 4 3 5 7 9 10 11 9 3 2 3 2 6 9 6 11 7 5 5 7 13 12 12 11 10 9 9 7 6 5 4 3 3 3 3 3 3 4 4 4 5 6 6 7 7
4 4 5 5 3 3 4 9 7 8 3 7 3 6 4 4 10 7 13 11 10 6 5 9 11 11 11 11 10 9 8 7 6 5 3 2 2 3 3 4 5 6 7 8 8 8 8 8 9
4 3 4 3 2 2 1 5 7 10 6 6 4 5 5 3 11 17 13 10 8 5 4 6 11 9 9 9 9 8 8 7 6 6 5 4 4 5 5 6 6 7 8 8 9 9 9 9 9
4 4 5 2 2 1 3 4 2 1 3 3 2 11 4 12 16 12 11 8 6 6 5 5 9 9 8 8 7 6 6 8 9 11 13 11 9 6 7 8 8 8 9 9 9 9 9 10 10
7 5 5 5 5 0 5 5 0 4 4 9 6 9 3 10 12 11 10 6 6 5 5 4 4 6 8 7 6 6 7 8 11 13 13 14 13 16 16 16 11 11 11 11 10 10 10 10 11
6 5 5 3 8 6 7 8 3 6 3 13 11 6 7 5 13 12 10 7 6 5 4 4 3 3 3 3 7 7 11 12 13 14 15 16 16 16 16 16 17 15 15 14 15 14 13 14 12
5 6 4 7 7 6 4 6 3 2 3 8 9 6 9 18 16 13 10 7 5 5 3 2 2 3 3 4 5 9 12 14 13 12 14 10 6 7 10 15 16 16 17 15 15 14 14 14 13
5 5 11 8 7 8 10 7 9 5 9 7 9 15 19 19 17 16 11 8 7 5 5 4 3 3 2 5 6 6 7 5 5 5 7 5 6 7 10 12 16 16 17 16 16 15 14 11 4
4 6 8 6 9 16 16 6 5 5 14 10 21 18 19 18 14 14 10 9 8 5 4 5 5 7 6 5 4 3 3 3 4 6 5 5 5 4 5 4 5 5 12 6 8 6 5 6 5
1 7 5 6 6 9 15 8 5 10 4 10 19 21 18 17 14 14 13 10 7 7 5 5 6 7 6 4 4 4 3 3 3 4 6 5 4 6 6 5 5 5 5 6 5 3 5 6 5
5 4 7 8 13 10 14 10 5 3 9 17 16 16 17 15 13 9 10 8 7 7 5 6 6 6 5 5 4 4 4 4 4 4 5 4 5 5 4 5 5 5 5 4 4 4 5 5 6
3 4 1 8 8 8 14 6 6 6 15 17 15 13 12 13 12 10 9 8 6 6 6 5 7 6 6 5 5 4 4 3 4 4 4 6 4 4 5 5 5 6 5 4 4 4 4 4 4
3 5 5 2 7 7 13 2 6 7 15 17 15 13 12 10 9 10 8 9 7 5 6 7 7 6 5 4 5 4 3 4 4 4 6 6 6 6 5 4 4 4 5 6 5 5 4 4 5
4 5 3 3 6 6 5 15 7 12 18 17 15 13 12 12 9 9 8 8 7 7 8 7 7 6 7 7 5 4 5 4 4 4 5 6 6 6 5 4 5 5 4 4 4 4 4 5 4
7 2 2 1 5 7 3 4 9 12 14 14 14 12 12 10 10 8 9 9 8 8 8 8 7 7 7 7 6 7 7 6 4 4 4 6 5 6 5 4 4 5 4 4 4 3 2 4 6
2 3 2 5 8 9 13 7 11 17 17 17 13 12 11 12 11 9 10 9 9 8 8 8 6 6 5 5 5 6 6 5 4 4 4 6 5 6 5 4 5 5 3 5 6 3 4 2 4
1 2 3 5 8 7 17 10 20 21 13 11 8 8 7 7 3 8 8 9 8 7 8 7 7 6 5 4 4 4 3 2 3 4 5 6 5 5 5 4 5 5 5 5 6 4 4 4 7
3 3 8 10 4 10 4 7 18 16 11 17 19 13 14 14 14 9 11 7 5 5 8 8 7 7 5 3 2 3 3 2 1 2 4 5 5 6 5 5 4 5 4 7 8 6 3 3 8
4 4 6 9 5 5 9 4 9 3 5 14 16 20 21 23 19 13 11 10 10 8 8 8 7 7 5 5 3 4 3 3 4 3 3 4 5 6 6 6 5 5 5 5 4 6 7 5 4
5 8 10 8 4 6 4 3 5 10 11 13 17 17 19 11 14 13 11 9 11 7 7 7 7 7 6 5 5 5 3 2 1 2 2 4 6 5 6 6 6 6 4 6 4 5 5 6 7
12 6 10 7 5 4 2 5 4 10 7 16 19 15 13 14 17 16 13 11 8 8 7 6 7 7 6 6 7 5 4 1 1 2 4 5 4 6 5 6 5 6 4 4 6 6 7 4 4
7 6 6 6 4 2 7 7 5 11 22 18 13 14 13 14 14 12 9 9 8 6 7 7 8 6 7 6 6 6 6 3 3 4 4 4 3 4 5 5 4 5 5 5 3 4 7 5 5
3 6 3 3 3 7 2 4 9 19 5 17 23 19 15 16 16 16 15 13 11 10 8 7 7 7 6 7 6 5 5 4 4 2 2 4 4 3 5 3 5 4 3 4 4 5 6 5 4
6 8 7 7 5 6 1 5 6 4 5 11 14 14 14 16 16 17 17 14 13 11 10 8 8 7 7 7 6 4 4 2 1 1 1 2 1 2 4 3 4 5 6 5 3 2 3 4 5
4 4 4 6 2 3 4 4 4 4 6 7 13 16 18 18 19 19 16 14 14 12 11 11 9 7 7 7 6 5 4 2 1 1 0 1 2 2 4 4 5 5 6 6 5 4 5 4 4
8 5 2 3 5 5 4 3 6 5 10 9 11 15 17 16 18 17 16 15 13 12 9 9 8 9 7 7 6 5 5 3 2 1 1 1 2 3 6 6 5 5 6 6 6 4 5 6 3
1 2 1 4 5 7 5 8 9 15 14 17 16 17 20 19 19 17 16 14 13 11 11 10 9 8 7 6 6 6 4 3 3 3 3 3 1 2 3 4 3 5 5 5 5 4 4 6 3
4 6 7 6 6 2 5 8 5 11 14 16 15 16 17 18 18 17 17 15 13 13 12 11 9 9 7 7 6 6 3 3 3 4 5 4 3 1 4 4 3 4 4 4 4 4 3 4 3
Wind_Direction
148 146 187 73 59 70 93 172 193 136 117 145 303 336 137 5 33 158 256 128 122 131 130 120 118 111 104 103 104 101 102 104 102 96 89 81 69 61 53 48 48 50 51 49 45 31 19 12 12
141 118 44 89 86 73 207 75 90 111 175 75 321 227 48 71 84 114 110 138 131 134 139 134 124 121 121 119 118 115 114 113 109 100 87 72 61 48 44 31 20 17 11 1 351 346 335 327 326
175 52 86 96 102 155 122 123 158 155 157 155 178 235 94 113 117 145 137 132 131 149 164 149 134 131 122 120 121 118 113 106 99 91 74 50 34 15 7 348 329 324 326 324 320 317 315 313 311
150 13 30 86 145 211 104 177 162 149 294 150 203 117 117 185 164 135 133 144 146 159 156 143 137 132 130 129 123 113 110 101 88 65 53 22 352 339 329 324 324 331 336 328 326 321 318 313 309
50 60 58 83 116 317 113 192 170 190 155 183 167 112 113 91 110 130 142 146 147 143 131 122 137 133 127 124 125 123 113 101 75 39 6 348 342 330 320 315 329 332 335 335 328 322 316 311 306
48 97 70 189 126 330 271 249 203 94 102 265 136 134 174 132 127 142 139 140 125 129 132 137 134 131 132 128 122 112 93 78 52 48 50 45 15 331 321 324 324 326 334 335 331 328 326 317 313
128 97 188 148 142 285 242 143 174 172 183 178 179 148 124 145 134 128 120 114 116 116 111 95 111 142 135 129 119 108 91 73 54 48 50 46 36 34 32 12 347 344 340 338 345 338 344 325 316
110 97 121 150 175 215 226 143 215 202 165 132 158 183 166 149 125 113 103 101 98 92 96 112 115 106 99 103 112 89 70 63 51 47 43 38 31 27 23 17 19 35 33 29 25 28 22 17 18
129 78 152 189 154 225 187 173 158 261 151 180 194 112 133 131 121 112 106 97 91 89 84 61 129 149 129 117 107 83 66 58 51 40 42 36 21 14 18 18 23 22 16 15 16 16 12 15 11
110 131 201 193 154 188 178 173 160 187 195 197 95 104 129 132 136 138 144 122 108 90 66 52 78 175 118 80 73 72 66 52 48 38 33 27 25 23 28 19 23 15 13 9 11 10 14 12 355
154 176 187 189 191 172 169 210 156 181 184 197 152 142 146 133 140 139 129 126 125 115 81 50 73 85 83 78 81 74 65 52 42 41 37 34 34 17 17 9 4 1 5 2 2 5 10 1 353
155 237 155 190 165 143 172 138 176 180 245 167 154 144 143 142 146 146 134 129 130 108 94 75 65 80 76 80 77 92 86 64 54 42 37 37 27 21 14 12 356 0 350 350 355 355 349 355 343
199 245 152 178 163 167 142 160 160 224 112 117 137 143 147 147 144 124 124 124 122 103 91 77 80 82 81 82 92 83 88 77 70 54 44 48 41 31 11 6 0 352 345 353 351 351 350 341 338
209 248 252 183 196 145 136 128 155 206 138 127 140 146 145 144 139 130 130 124 107 114 104 89 70 67 68 59 67 76 82 77 61 52 47 47 49 38 26 11 1 358 350 337 349 343 334 331 331
259 319 57 359 129 142 113 76 217 156 147 145 151 146 139 127 141 142 145 128 126 113 106 95 82 63 66 64 70 80 115 71 52 38 36 41 40 35 27 11 357 342 334 340 348 346 345 353 337
7 49 53 239 145 164 108 207 196 164 159 160 155 156 142 143 143 124 119 114 110 97 80 65 74 67 64 60 60 65 61 44 41 33 30 31 28 22 18 8 351 333 337 339 346 345 340 342 338
7 248 132 155 235 153 152 216 194 168 171 165 164 148 139 131 118 113 117 117 112 105 96 73 55 50 53 59 58 62 60 57 44 40 29 21 17 21 27 3 339 343 352 357 343 325 346 336 341
248 6 344 122 213 180 197 246 173 165 173 180 155 147 146 142 138 140 126 118 113 108 106 101 83 63 63 63 61 68 61 44 36 29 27 21 12 19 16 0 356 350 360 4 356 349 331 313 313
159 215 281 261 171 141 213 202 176 176 184 137 123 103 86 75 138 137 137 133 120 100 97 84 77 40 56 64 77 65 63 24 28 12 17 21 14 11 11 353 13 359 15 357 4 332 348 336 357
213 281 277 282 272 179 193 225 176 167 167 153 142 136 169 159 203 178 150 129 77 114 101 90 83 69 55 63 98 107 109 56 28 337 8 6 10 10 5 4 6 5 7 20 13 18 339 356 14
236 206 258 226 59 53 105 36 143 149 132 169 181 170 172 188 157 167 161 148 143 144 129 119 107 92 77 92 85 68 50 27 12 351 340 342 1 17 14 11 18 10 19 29 9 14 30 21 350
284 219 252 266 129 226 172 223 215 178 177 181 196 186 185 165 155 158 168 158 146 156 130 122 118 109 94 98 91 96 116 113 278 291 295 348 5 15 23 28 37 35 25 43 26 29 29 41 31
237 265 231 228 196 129 296 91 258 157 216 208 205 193 191 176 160 163 165 156 164 142 144 132 125 112 121 110 106 106 96 93 303 351 16 6 359 26 34 37 45 57 38 34 40 36 40 39 55
255 297 40 40 90 75 237 143 237 186 209 210 200 190 185 163 159 152 155 155 158 154 142 138 132 134 124 116 109 117 122 106 62 27 21 357 346 12 20 47 43 60 48 36 28 45 47 52 57
125 73 309 341 8 213 236 115 228 215 238 203 192 183 175 158 161 164 167 171 167 169 155 142 148 137 149 130 132 139 128 101 82 45 355 351 359 359 340 31 29 28 34 40 36 45 49 37 57
181 166 166 218 190 238 62 199 257 120 169 165 178 173 154 166 169 172 177 173 171 173 159 152 153 153 152 143 152 150 138 114 94 322 340 354 8 322 333 94 61 31 32 13 28 33 24 80 83
281 235 217 111 14 95 228 298 350 91 101 129 151 159 173 176 175 177 175 174 174 172 165 162 162 156 154 157 156 158 151 131 287 330 252 301 320 15 15 59 77 40 45 28 38 33 36 56 40
173 185 296 352 154 221 261 246 225 197 190 155 171 182 181 176 176 176 178 177 175 171 151 157 164 159 171 162 164 161 164 183 257 215 235 290 344 34 60 68 49 43 45 29 51 36 36 59 29
227 245 100 137 150 174 212 253 210 195 186 174 186 188 183 180 180 177 177 179 170 159 154 159 155 159 166 174 165 159 189 218 242 213 254 266 320 89 110 94 68 56 44 20 45 45 65 76 57
184 236 168 152 249 168 161 265 213 178 180 179 189 189 188 184 179 174 171 167 165 161 159 161 163 167 175 179 162 181 201 238 214 224 242 231 220 188 148 124 94 74 50 27 36 40 48 63 40